Theta_e
323 323 325 326 325 321 319 324 328 329 333 336 333 329 323 324 333 335 329 329 332 330 328 326 325 325 325 325 324 319 313 310 309 308 308 308 306 305 304 304 303 303 303 303 304 304 305 306 309 311 313 317 321 323 323 323 323 323 323 324 324 324 325 325 325 324 323 323 324 324 324 322 320 318 317 318 319 319 319 317 317 317 315 313 314 315 314
324 323 324 324 323 322 319 320 322 325 329 331 328 326 324 325 329 330 329 329 330 329 327 324 323 323 322 323 322 316 310 308 308 307 307 307 306 305 303 303 302 302 302 302 302 302 303 304 304 305 306 310 316 321 323 323 322 322 322 323 323 323 323 323 323 323 323 323 323 323 323 322 322 321 320 320 321 321 319 319 319 319 316 315 316 316 315
323 320 323 323 321 320 319 318 318 321 325 326 326 326 325 327 328 327 327 329 328 324 322 320 318 316 316 317 316 313 309 307 307 306 305 305 304 304 303 302 301 301 301 302 302 302 302 302 303 304 304 306 310 315 319 320 320 320 320 321 321 321 322 321 321 321 321 321 321 322 322 322 323 323 323 323 323 322 322 320 319 319 318 317 317 317 316
323 319 322 323 320 320 321 320 317 318 322 324 326 326 326 327 328 327 327 328 325 319 315 313 311 310 311 311 310 309 308 306 306 305 304 304 303 302 302 301 301 301 301 301 301 301 301 301 301 302 303 304 306 308 310 311 311 311 311 312 314 317 319 320 320 320 320 320 321 321 321 321 321 321 322 323 322 321 323 323 320 319 319 318 318 317 317
322 319 321 322 319 321 324 320 315 314 318 323 325 325 324 324 324 325 326 324 319 315 312 310 308 307 308 308 307 307 306 305 304 304 303 303 302 302 302 302 301 301 301 300 300 300 300 301 301 301 302 303 304 304 305 305 305 305 305 305 306 307 309 311 312 313 314 316 318 320 320 320 320 320 320 321 321 320 321 322 322 321 321 321 320 319 319
323 320 320 321 320 321 322 317 312 311 315 321 322 320 319 320 321 320 319 317 314 312 312 310 308 307 307 307 306 304 304 303 302 302 302 301 301 301 301 302 302 301 301 301 300 300 301 301 300 300 301 302 302 303 303 303 303 303 303 303 303 303 303 303 303 304 305 307 309 311 312 313 314 316 317 318 319 320 321 321 321 321 321 322 322 321 321
323 320 321 324 323 320 318 315 311 309 312 316 317 316 314 315 317 316 313 312 311 310 309 308 306 305 305 305 304 304 303 302 302 302 302 301 301 301 301 302 301 301 301 302 301 301 301 301 301 301 301 301 302 303 302 302 302 302 302 302 302 302 302 302 302 302 302 303 304 304 305 306 307 308 309 311 313 315 317 318 319 321 322 322 322 322 322
321 321 323 323 320 316 316 315 312 310 311 313 317 318 314 312 316 315 310 308 308 307 307 306 305 304 304 304 304 303 303 302 302 302 302 302 302 301 301 301 301 300 300 301 301 300 300 300 301 302 301 301 302 302 302 302 302 302 301 301 301 301 301 301 301 301 301 302 302 302 303 304 304 304 305 306 306 308 310 312 313 316 319 320 322 323 323
320 322 321 318 317 316 316 315 312 310 311 311 314 318 314 310 313 312 306 305 305 305 305 305 304 304 305 304 304 303 302 302 302 302 301 301 301 301 300 301 300 300 300 300 300 300 300 300 301 302 302 302 302 302 302 302 301 301 301 300 300 300 300 300 300 300 300 300 301 301 302 302 302 302 303 303 304 304 306 307 307 308 309 311 314 317 320
320 323 320 318 320 318 315 315 313 311 312 310 311 316 316 312 311 309 306 305 305 304 304 304 304 306 307 305 303 302 301 301 301 301 301 300 300 300 300 300 300 300 300 300 300 300 301 301 301 301 302 302 302 301 301 301 301 300 301 300 300 300 300 300 300 300 300 300 300 300 300 301 301 301 302 302 302 303 303 304 304 304 304 305 307 308 312
321 323 321 318 319 317 314 313 312 311 313 313 312 317 318 312 309 308 306 305 305 305 304 304 305 308 308 304 303 303 302 301 300 300 300 300 300 300 300 300 301 301 301 300 300 300 301 301 301 301 301 301 301 301 301 300 301 301 301 301 301 300 300 300 300 300 300 300 300 300 300 300 300 300 301 301 301 302 302 302 302 302 303 303 304 304 306
319 319 317 315 316 314 311 310 309 308 309 311 315 320 318 311 308 307 306 306 306 306 307 306 307 307 306 303 303 303 302 301 300 300 301 300 300 300 300 301 301 301 301 300 300 301 301 300 301 301 301 301 301 301 300 300 301 301 301 301 300 300 300 300 300 300 300 300 300 300 300 300 300 300 300 300 300 300 301 301 301 302 302 302 302 303 304
317 316 315 314 314 312 308 307 308 308 309 313 317 318 314 310 308 307 306 308 308 307 307 306 306 305 304 303 303 303 302 302 301 300 300 299 298 298 299 300 301 301 300 300 301 301 301 300 300 300 301 301 301 300 300 300 300 300 300 300 300 299 299 299 299 299 299 299 299 299 299 299 299 299 299 300 299 299 300 300 300 301 301 301 302 302 302
315 315 314 313 312 309 306 306 307 308 313 317 314 309 308 309 308 306 305 306 306 306 305 304 303 303 303 302 302 302 302 302 300 299 299 298 298 298 299 300 300 301 301 301 301 301 301 300 300 301 301 301 301 300 300 300 300 300 300 300 299 299 299 299 299 299 299 299 299 299 298 298 298 299 299 299 299 299 299 299 299 300 300 300 301 301 302
314 314 313 313 313 308 304 307 310 310 312 313 308 304 305 306 305 304 304 303 303 304 304 303 303 303 302 301 301 301 301 300 299 298 299 298 298 298 299 299 300 300 301 301 301 301 300 300 301 301 301 301 301 300 299 299 299 299 299 299 299 299 299 299 299 298 298 298 298 298 298 298 298 298 298 298 298 298 298 298 298 299 299 299 300 300 301
313 313 311 309 309 305 303 307 310 307 305 306 305 304 303 303 303 303 303 303 302 302 302 302 302 301 301 301 301 301 301 300 299 298 298 299 299 299 299 299 300 300 301 301 301 300 300 301 301 301 301 300 300 299 299 299 299 299 299 299 299 299 299 298 298 298 298 298 298 297 297 297 297 297 297 297 297 297 297 297 297 297 298 298 298 298 299
309 310 307 305 305 303 303 304 304 303 303 303 303 302 302 302 302 302 302 303 302 301 301 302 302 302 302 302 302 301 301 300 299 298 299 299 299 299 299 299 299 300 300 301 300 300 300 300 300 300 300 300 299 299 299 298 299 299 299 299 298 298 298 297 297 297 297 297 297 297 297 296 296 296 296 296 296 296 296 297 297 297 297 297 297 297 297
305 306 305 303 304 303 303 303 302 303 303 303 302 303 302 302 302 301 301 301 301 301 301 301 302 302 301 301 301 302 302 300 298 298 299 299 299 299 299 299 299 299 300 300 300 299 299 300 300 299 299 299 298 298 298 298 298 298 298 298 298 297 297 297 297 297 296 296 296 296 296 295 295 295 295 295 296 296 296 296 296 296 296 296 296 296 297
307 307 304 303 304 303 302 302 302 301 302 302 303 304 304 304 303 303 302 302 302 301 301 300 301 301 301 302 301 301 301 300 297 298 299 299 299 299 299 298 298 299 300 299 299 299 299 299 299 299 299 298 298 298 298 298 298 298 297 297 297 296 296 296 296 296 296 296 295 295 294 295 295 295 295 295 295 295 295 295 296 295 296 296 296 296 296
309 307 304 303 304 303 302 302 301 301 301 301 301 302 303 303 303 303 302 302 302 302 301 300 301 301 301 302 302 301 300 298 297 297 298 298 299 299 298 298 298 299 299 299 299 299 299 299 299 299 298 298 298 298 298 298 298 297 297 296 296 296 296 296 296 296 295 295 295 294 294 295 295 295 295 295 295 295 295 295 295 295 295 295 295 295 295
306 305 303 303 303 302 302 302 301 301 301 301 301 301 301 300 301 301 300 300 299 300 300 299 300 300 299 299 299 299 298 296 296 297 297 297 298 298 298 298 298 298 299 299 299 299 299 299 299 298 298 298 298 298 298 298 297 297 296 295 295 295 296 296 296 296 296 295 295 295 295 295 296 295 295 295 295 294 294 294 295 295 295 295 295 295 295
307 306 305 305 306 304 302 302 302 302 302 302 302 302 301 301 301 301 301 299 297 297 297 297 298 298 297 295 295 295 295 294 295 296 296 297 297 297 297 298 298 298 299 299 299 299 298 298 298 298 298 298 298 298 298 297 297 297 296 295 295 295 295 295 295 295 295 296 296 296 296 296 296 295 295 295 294 294 293 293 294 294 294 294 294 295 295
309 309 306 306 307 305 303 303 303 303 302 303 302 301 301 302 300 299 300 300 299 298 297 296 296 296 295 294 294 293 293 294 295 295 296 296 297 297 297 298 298 298 298 298 299 299 298 298 298 298 298 298 298 298 297 297 297 296 295 295 295 295 295 295 295 295 295 295 296 296 296 295 295 295 295 295 294 294 293 293 293 293 293 293 293 294 294
306 306 305 305 305 304 302 303 304 302 300 300 301 301 300 299 297 296 297 298 298 298 297 296 295 295 294 294 294 293 294 295 296 296 296 296 297 297 297 297 297 298 298 298 298 298 298 298 298 298 298 298 298 297 296 296 296 296 295 295 295 295 295 295 294 294 295 295 295 295 295 294 294 294 295 295 294 294 293 293 293 292 292 292 293 293 293
306 304 303 302 302 301 301 301 301 300 297 297 299 299 298 297 296 296 296 295 296 297 296 295 295 296 295 294 295 295 295 295 295 296 296 296 296 296 297 297 297 297 297 297 297 298 298 298 298 298 298 297 297 297 296 296 296 296 295 295 296 296 296 295 294 294 295 295 294 294 294 294 294 294 294 294 294 294 293 293 292 292 292 292 292 292 292
304 303 303 302 301 301 300 299 299 299 297 297 298 298 297 297 296 296 296 296 296 296 296 295 295 296 296 295 295 295 295 295 295 295 296 296 296 296 296 296 296 296 296 297 297 298 298 298 298 298 297 297 297 297 296 296 296 296 296 296 296 296 296 295 295 295 295 294 294 294 294 294 294 293 293 293 293 293 293 293 293 293 293 293 293 293 293
303 303 303 302 301 300 300 300 300 298 296 295 297 297 297 298 297 297 297 297 296 296 296 295 295 296 295 295 295 295 295 295 295 295 295 295 295 295 295 295 296 296 296 296 297 297 297 297 297 297 297 297 297 297 296 297 296 296 296 296 296 296 296 295 295 295 294 294 294 294 294 294 294 294 294 293 293 293 293 293 293 293 293 293 293 293 293
302 303 303 303 302 301 300 299 298 296 295 295 296 296 297 297 296 296 297 296 295 295 296 295 296 296 295 295 295 295 294 295 295 295 295 294 294 294 294 294 295 295 295 296 296 296 296 296 297 297 297 297 297 297 297 297 296 296 296 296 296 295 295 295 295 295 294 294 295 295 295 295 295 294 294 294 294 294 293 293 293 293 293 293 294 294 294
302 302 302 302 301 299 299 298 298 297 297 296 296 296 296 297 298 300 299 296 294 294 294 294 295 296 295 295 295 295 294 294 294 294 294 294 294 294 294 294 294 294 295 295 296 296 296 295 296 297 297 297 297 297 297 297 296 295 295 296 295 295 295 295 295 295 295 295 296 296 296 295 295 295 295 295 295 294 294 293 293 293 293 294 294 294 294
302 302 302 301 300 299 299 299 299 299 298 296 295 296 296 296 299 301 299 295 293 293 294 294 294 295 295 294 294 294 294 294 294 294 294 294 294 294 294 294 294 294 295 295 295 295 295 295 295 297 297 297 297 297 297 297 296 295 295 295 295 294 294 295 295 296 296 296 296 296 296 296 296 295 295 295 295 295 295 294 294 294 293 294 293 294 295
303 303 303 303 302 301 301 301 301 300 298 296 297 298 297 297 299 300 298 295 293 293 294 294 294 294 294 294 294 294 294 294 294 293 293 293 293 294 294 294 293 293 293 294 294 294 294 295 296 297 297 297 297 297 297 297 296 295 295 295 295 294 295 295 295 296 296 296 296 296 296 295 295 295 295 296 296 296 295 294 294 294 294 294 294 295 295
302 302 303 303 302 301 302 302 301 300 299 298 299 299 297 297 298 298 297 296 294 293 293 293 293 294 294 294 294 293 292 292 291 291 292 292 293 293 293 293 292 292 291 291 292 292 293 294 296 297 297 296 296 297 297 297 296 296 296 295 294 294 294 295 295 295 295 295 295 295 295 295 295 296 296 296 295 295 295 294 294 295 295 295 294 295 295
302 302 301 301 302 302 301 300 300 300 299 298 297 296 294 294 295 295 295 295 293 293 293 293 294 294 294 293 293 292 290 289 288 289 290 292 293 293 293 292 291 289 289 289 289 291 293 295 296 297 296 296 296 296 297 296 296 296 296 295 294 294 294 295 295 295 295 295 295 294 294 295 295 296 296 295 295 294 294 294 295 295 294 294 294 294 294
302 302 302 301 302 302 300 299 301 302 301 298 295 294 293 294 294 294 294 294 293 293 293 294 294 294 293 293 292 290 289 288 288 289 291 292 292 291 290 289 288 287 287 287 288 291 294 296 296 296 296 295 295 296 297 296 296 296 295 295 294 294 294 294 294 294 294 294 294 294 295 295 295 295 295 295 294 294 294 294 295 294 294 294 294 294 294
299 299 299 298 299 299 298 297 299 301 301 299 297 295 294 295 295 294 294 294 294 294 294 294 294 293 292 292 291 289 288 288 288 289 290 290 289 288 287 287 286 286 286 288 290 293 296 296 296 296 295 295 295 297 297 296 296 296 295 294 294 294 294 294 294 294 294 294 294 294 294 295 295 294 294 294 294 293 293 294 294 294 294 294 294 294 294
298 297 297 297 297 297 296 296 297 297 297 297 297 296 295 295 295 295 295 295 295 295 295 294 293 292 292 292 290 289 289 288 288 288 289 288 288 287 287 287 287 286 287 290 293 295 296 296 295 295 295 295 296 297 296 296 296 295 295 294 294 293 293 293 293 294 294 294 293 294 294 294 294 294 294 294 294 293 293 294 294 294 294 294 294 294 294
297 297 297 296 297 297 296 296 297 297 296 296 296 296 296 295 295 295 295 295 295 295 294 294 293 293 293 292 291 290 289 289 289 289 289 289 289 288 288 288 287 286 287 290 293 295 295 295 294 295 296 297 297 296 296 296 296 295 294 294 294 293 293 293 293 293 293 293 293 293 294 294 294 294 294 294 294 293 293 293 294 294 294 294 294 293 293
296 297 297 296 297 297 296 296 296 296 296 296 296 296 296 296 295 295 295 295 295 294 294 294 294 293 293 292 290 289 289 288 288 289 289 289 289 289 288 288 287 286 288 291 292 292 294 294 294 295 297 297 297 296 295 295 296 295 294 294 293 293 293 293 292 292 292 292 292 293 293 293 293 293 293 293 294 293 293 293 293 293 293 293 293 293 293
297 297 297 297 297 297 296 296 296 296 296 296 296 296 296 296 295 295 295 295 295 295 294 294 294 293 293 292 291 291 290 289 289 288 289 289 289 289 288 287 286 286 289 292 292 291 292 294 294 295 296 296 296 295 295 295 296 296 294 294 293 293 293 292 292 291 291 291 292 292 292 293 293 293 293 293 293 293 293 293 293 293 293 293 293 293 293
297 298 297 297 297 296 296 296 296 296 296 297 296 296 296 296 296 295 295 295 295 295 295 295 294 293 293 292 292 292 292 292 291 290 289 289 289 289 288 288 288 288 289 291 292 292 292 293 294 295 294 294 295 295 295 295 296 296 295 294 293 293 293 292 291 291 291 291 291 292 292 292 292 292 292 292 293 293 292 292 293 293 293 292 292 292 293
297 297 297 297 297 297 297 297 296 296 296 296 296 296 296 296 296 295 295 295 295 295 295 295 294 294 294 293 293 293 293 293 293 292 291 290 290 288 287 289 291 291 291 292 293 292 291 291 293 294 293 293 294 295 294 294 295 296 295 294 294 293 293 292 292 291 290 291 291 292 292 292 292 292 292 292 292 292 292 292 292 292 292 291 291 291 292
297 297 297 297 297 297 297 297 296 297 297 296 296 296 296 295 296 296 295 295 295 295 295 295 294 294 294 293 293 293 293 293 294 294 293 291 290 289 288 290 293 294 293 293 293 291 289 291 294 294 292 292 294 295 294 294 295 296 295 294 294 293 293 292 292 291 291 291 291 292 292 292 292 292 292 292 292 292 292 292 292 292 291 291 291 291 291
297 296 297 297 297 297 297 297 297 297 297 296 296 296 296 296 296 296 295 295 295 295 295 295 294 294 293 292 292 291 292 292 293 293 293 292 292 291 291 292 293 293 293 293 291 289 289 292 294 293 291 292 294 295 294 294 295 296 295 294 294 293 293 293 292 292 291 291 291 291 292 292 292 292 292 292 292 291 292 292 292 291 291 291 291 291 291
297 297 297 297 297 297 297 297 297 297 297 297 297 296 296 296 296 296 296 296 296 295 295 295 295 294 293 292 292 291 291 291 291 292 292 292 292 292 292 292 292 292 291 290 289 288 290 293 294 292 291 292 294 294 294 294 295 296 295 295 294 294 293 293 292 292 292 291 291 291 291 291 292 292 291 292 292 292 292 292 291 291 292 291 291 291 291
297 297 297 297 297 297 297 297 297 297 297 297 297 297 297 296 297 297 297 296 296 296 296 296 295 294 293 293 293 292 292 292 292 292 292 292 292 292 292 292 291 291 289 288 287 289 291 293 293 292 291 292 293 294 294 295 295 296 296 295 294 294 294 293 293 292 292 292 292 291 291 291 291 291 291 291 291 291 291 291 291 291 291 291 291 291 291
297 297 297 297 297 297 297 297 297 297 297 297 297 297 297 297 297 297 296 296 296 296 296 296 296 294 293 293 293 292 292 292 292 291 291 291 291 291 292 291 290 290 289 287 287 290 292 293 292 291 291 292 293 294 294 295 296 296 295 295 294 294 294 293 293 292 292 292 292 292 291 291 291 291 291 291 291 291 291 291 291 291 291 291 291 291 291
297 297 297 297 297 297 297 297 297 297 297 296 296 296 297 297 296 296 296 296 296 296 296 297 296 295 294 294 294 293 292 292 292 291 291 291 291 291 292 291 291 291 290 287 287 289 291 290 288 288 290 292 293 293 294 295 295 295 295 295 294 294 294 293 293 293 292 292 292 292 291 291 291 291 291 290 291 291 291 291 291 291 291 291 291 290 290
297 297 297 297 297 297 297 297 296 296 297 296 296 296 297 297 296 296 296 296 296 296 296 296 296 296 295 295 294 294 293 292 292 291 291 291 291 291 291 291 290 290 288 286 286 288 288 286 285 288 291 292 292 292 292 293 293 294 295 295 294 294 294 293 293 293 292 292 292 292 291 291 291 291 291 290 290 290 291 291 291 290 290 290 290 290 290
297 297 297 297 297 297 297 297 296 296 297 297 297 297 297 297 297 296 296 296 296 296 296 296 296 296 296 295 294 294 293 292 292 291 291 291 291 291 290 290 289 287 285 285 287 287 286 285 287 290 292 292 291 292 292 292 291 292 293 294 294 294 294 293 293 292 292 292 292 291 291 291 291 291 291 291 290 290 290 291 291 290 290 290 290 290 290
298 298 297 297 296 297 297 296 296 297 297 297 297 297 297 296 296 296 296 296 296 296 296 296 296 296 296 296 295 293 292 292 292 291 291 291 291 291 291 290 289 286 286 288 289 288 286 288 290 291 291 291 292 292 291 291 290 290 291 292 293 294 293 293 292 292 292 292 291 291 291 291 291 290 290 290 290 290 290 290 290 290 290 290 290 290 290
298 298 298 297 297 297 297 297 297 297 297 297 297 297 296 296 296 296 296 296 296 296 296 296 296 296 296 296 295 294 293 292 291 291 291 291 291 291 291 290 289 286 286 289 290 289 288 289 291 291 291 291 291 291 290 290 289 289 290 291 292 293 293 292 292 292 292 291 291 291 290 290 290 290 290 290 290 290 290 290 290 290 290 289 289 289 289
297 297 297 297 297 297 297 297 296 296 296 296 296 296 296 296 296 296 296 296 296 296 296 296 295 295 296 296 295 295 294 293 291 291 291 291 291 291 290 290 289 287 286 287 289 289 289 290 290 290 291 291 290 289 290 290 289 290 290 290 290 291 291 291 291 291 291 291 291 290 290 290 289 289 289 289 289 289 289 289 289 289 289 289 289 289 288
Wind_Speed
4 1 2 3 4 5 5 5 5 5 6 8 8 2 2 1 3 4 8 10 9 8 7 6 6 7 9 8 9 12 12 10 11 12 13 13 12 12 13 12 11 11 10 11 14 18 20 22 22 21 19 17 15 13 12 11 11 10 10 11 11 9 8 9 9 9 11 14 15 13 11 11 13 13 12 11 11 12 13 13 11 12 16 15 12 14 17
6 7 5 5 5 6 8 7 6 5 5 7 8 5 4 5 3 5 11 9 5 4 5 6 7 7 7 8 9 12 13 12 12 13 13 12 11 12 12 10 10 9 9 11 15 19 22 24 23 23 23 22 19 15 12 13 13 12 12 13 12 9 8 7 7 7 9 11 10 8 6 7 8 11 12 9 7 11 14 14 12 11 13 13 10 12 16
5 8 8 7 5 6 8 9 9 9 6 5 7 5 6 8 6 6 10 9 5 4 5 8 8 7 8 9 10 11 10 11 13 13 13 12 11 10 10 9 10 9 10 12 15 17 20 22 23 23 24 25 25 21 17 16 16 15 15 15 14 11 8 6 7 7 6 7 6 4 4 6 9 11 13 11 8 7 8 11 14 13 12 12 11 11 12
2 5 7 6 3 5 8 9 10 10 6 1 3 2 3 6 7 7 8 6 3 3 7 10 8 8 10 11 10 10 8 8 12 14 13 12 11 10 10 10 11 11 11 13 14 15 19 24 25 24 24 27 27 26 24 23 23 24 25 24 22 19 15 12 11 9 7 6 4 2 2 4 7 6 7 11 11 9 5 5 9 11 11 11 12 11 11
1 5 5 4 2 3 4 5 6 7 5 2 2 4 3 4 7 7 4 3 3 3 8 12 10 9 11 9 8 8 8 8 10 11 11 11 11 10 10 10 10 11 12 12 14 17 20 22 22 24 27 28 27 25 24 25 26 27 29 28 28 27 25 22 20 17 14 13 10 7 6 3 1 2 5 9 11 9 5 2 2 4 6 8 9 10 10
1 4 4 4 2 2 1 2 4 6 5 1 6 6 6 6 4 6 6 6 6 5 8 11 11 9 8 6 5 5 5 6 8 9 10 10 9 10 9 9 10 11 13 13 15 19 21 21 21 24 27 27 25 25 25 25 26 27 28 28 27 27 27 25 24 23 22 21 19 16 14 13 12 9 6 2 2 4 3 3 5 5 5 5 7 9 10
1 1 3 3 0 2 1 2 5 6 4 4 9 8 8 9 5 9 12 9 8 9 9 10 12 10 7 7 7 7 6 5 6 9 9 8 9 9 8 9 9 11 14 15 16 18 19 21 22 24 25 25 25 26 26 26 27 27 27 28 27 25 25 24 23 22 22 21 20 19 18 17 17 17 15 13 12 9 5 3 6 6 6 6 8 9 11
2 2 3 2 2 1 2 4 6 6 5 5 7 7 9 10 5 7 12 9 8 10 11 11 12 10 7 7 8 7 7 6 6 7 7 7 7 8 8 9 10 12 14 16 17 17 17 19 22 22 22 23 24 24 24 24 26 26 26 27 26 24 24 23 21 21 20 20 19 19 18 17 17 17 17 16 15 13 10 7 6 5 5 5 7 10 11
2 3 2 2 1 2 4 4 3 2 2 3 2 3 4 9 5 6 13 11 10 10 10 11 13 11 9 9 6 5 4 5 5 6 6 6 8 9 11 12 13 13 14 15 16 16 17 19 21 19 18 19 21 22 22 23 24 25 25 26 24 24 23 22 21 21 20 20 20 19 19 19 19 19 18 17 16 15 13 12 11 10 10 9 8 9 11
2 3 3 2 1 1 2 3 4 2 4 4 1 3 2 7 5 6 11 13 12 12 11 11 11 8 8 7 1 3 2 2 4 6 6 7 10 12 14 15 14 13 14 14 14 16 18 19 19 18 18 18 20 22 22 22 23 24 24 23 22 23 23 22 21 21 20 20 21 21 21 21 21 21 20 19 18 17 16 16 15 14 13 12 11 10 11
2 3 3 2 1 2 3 5 7 3 4 4 2 3 2 3 4 5 9 11 10 11 10 9 7 5 6 4 3 3 2 2 3 5 5 7 10 11 13 15 15 14 13 14 15 17 19 19 17 16 17 18 20 22 22 22 23 23 22 20 20 21 21 20 20 20 20 20 20 20 20 21 21 21 21 20 19 18 18 18 17 17 16 15 14 13 13
2 3 2 1 1 1 3 6 8 6 4 1 3 1 2 2 5 5 8 9 7 7 6 4 2 4 5 6 5 4 4 4 5 6 6 9 12 12 12 11 12 12 13 15 17 18 18 17 15 15 16 18 20 21 21 22 22 20 18 17 17 17 17 17 18 18 18 18 18 18 19 18 18 19 19 19 20 20 20 20 20 19 18 18 18 17 16
3 4 2 1 1 2 4 7 8 6 3 1 3 2 3 3 6 5 7 8 6 4 4 3 2 3 6 8 7 6 5 5 6 8 10 13 15 16 15 12 10 11 12 14 16 16 16 15 15 16 17 19 20 20 21 22 20 18 16 15 16 16 17 17 17 17 17 17 17 17 17 17 17 17 18 18 18 19 19 19 19 19 19 19 20 20 19
2 3 2 1 0 2 6 7 7 3 2 2 2 1 1 2 5 5 5 6 6 5 5 6 7 7 8 9 8 6 6 6 6 8 11 13 15 17 17 16 13 13 14 15 14 13 13 14 14 15 17 17 16 17 21 22 19 16 15 15 16 16 17 18 18 18 17 17 17 17 17 18 17 17 16 15 15 16 17 17 17 17 17 17 19 20 19
2 3 3 2 1 4 9 7 4 4 2 2 1 2 5 5 5 6 6 5 7 9 8 8 10 10 9 9 8 7 7 7 8 11 13 13 14 15 17 16 14 13 13 13 12 11 10 10 11 12 13 14 14 16 20 19 16 15 15 15 15 16 17 18 18 18 18 17 17 17 17 18 17 17 17 16 15 15 17 18 17 17 17 17 18 19 20
1 2 2 1 2 4 8 4 2 2 2 1 3 4 6 6 5 5 6 5 5 9 10 10 10 10 9 8 8 8 7 7 9 12 14 14 14 14 15 14 13 12 11 10 9 8 7 7 7 7 8 11 14 16 17 15 14 14 15 15 16 17 18 18 18 18 17 16 16 16 16 17 17 18 19 19 18 18 18 18 18 18 18 19 19 21 22
3 3 3 2 2 2 6 6 5 4 4 5 6 7 8 6 5 4 6 6 6 7 10 10 9 8 8 8 7 7 7 7 9 12 14 15 15 14 12 11 11 11 9 7 5 7 7 7 6 4 7 11 14 14 13 13 13 14 15 16 17 17 17 17 17 16 15 15 15 16 17 18 19 20 20 20 19 19 19 19 18 18 18 20 20 21 22
5 6 4 4 4 5 6 6 5 6 6 5 6 9 8 6 5 6 6 7 7 7 8 9 7 6 7 7 7 7 7 7 9 13 15 15 14 13 11 9 8 9 6 5 7 10 12 13 12 12 12 13 13 12 11 11 13 14 14 15 15 15 15 15 14 14 15 16 17 19 19 19 19 18 18 18 19 18 18 18 18 18 19 19 20 21 22
3 4 4 4 5 6 6 6 6 6 6 5 6 7 7 6 7 8 7 8 8 7 8 8 7 7 7 7 6 6 6 7 9 12 13 13 13 12 10 7 7 8 7 8 11 13 14 14 14 14 14 13 12 10 11 12 14 15 16 16 15 15 15 14 13 14 16 18 20 20 20 19 18 18 18 19 19 19 20 20 19 19 20 19 19 21 22
3 3 4 5 5 5 4 5 5 5 6 6 5 6 6 6 7 8 8 9 7 5 6 7 7 8 7 6 6 6 6 7 9 11 12 12 11 10 8 7 7 7 7 9 11 13 14 12 12 11 11 11 10 11 13 14 16 19 19 18 16 15 14 13 14 15 17 18 19 19 19 19 20 21 21 20 19 20 20 19 20 20 20 19 19 20 22
4 4 6 6 6 5 4 4 5 4 4 6 6 6 6 7 7 7 8 8 7 6 6 6 8 9 8 7 8 7 5 6 9 10 11 11 9 7 8 8 6 5 5 7 10 13 13 10 9 10 10 10 11 13 15 17 19 21 20 16 14 14 14 14 15 17 17 18 19 20 21 21 21 21 20 19 19 19 18 17 17 19 19 19 19 20 21
2 3 5 6 5 3 2 4 5 5 5 6 6 6 6 6 7 6 7 8 9 9 10 11 10 8 7 10 12 10 7 9 10 10 11 10 7 7 8 7 6 7 7 8 10 12 11 9 9 9 9 11 12 14 16 17 18 18 16 14 13 13 14 15 16 18 19 20 21 21 21 21 21 22 21 19 18 19 19 17 16 16 18 20 20 20 21
3 5 6 5 5 4 4 5 6 6 5 6 6 5 5 5 6 7 7 8 8 9 11 15 16 10 8 12 14 11 9 11 11 11 11 10 9 9 9 8 9 9 10 11 11 9 8 9 9 8 9 10 12 14 15 16 15 13 13 13 13 14 15 16 17 18 20 20 20 20 20 20 22 23 24 23 21 20 20 19 18 18 19 20 20 19 19
2 3 5 5 5 5 4 6 6 5 6 7 6 5 5 5 6 9 9 8 9 8 7 11 17 17 14 16 16 12 10 12 12 11 11 10 10 10 10 9 9 8 9 11 10 7 7 8 8 8 8 8 9 11 13 14 12 10 11 12 12 13 13 14 15 16 17 18 18 18 19 19 20 22 23 24 24 24 23 21 20 21 21 20 19 17 16
4 3 4 6 7 6 5 6 6 6 9 10 7 6 8 9 10 13 11 9 12 13 9 9 14 18 17 17 16 13 11 10 10 9 9 10 10 10 9 8 7 6 7 9 10 8 7 6 7 7 5 5 7 8 10 11 10 9 10 11 10 10 10 11 13 14 15 16 16 16 17 18 19 20 20 20 21 24 26 25 23 22 20 19 19 19 18
5 5 7 8 7 5 5 6 5 5 9 11 8 8 12 14 14 15 14 13 14 16 14 13 14 14 14 14 13 11 9 8 8 7 7 7 8 8 7 7 5 4 5 8 9 9 7 5 4 4 3 4 7 8 8 9 10 10 10 10 8 8 9 11 12 13 14 14 14 15 17 18 19 19 20 19 19 21 24 26 26 25 23 22 22 23 23
5 6 7 7 5 3 3 5 5 5 8 12 11 10 13 16 15 13 13 13 14 15 16 17 17 15 14 11 9 8 8 7 6 5 4 4 4 4 4 4 3 2 4 7 8 7 6 4 3 2 3 4 6 7 7 10 13 11 9 8 7 7 9 11 11 12 12 12 13 16 19 20 20 21 21 20 21 21 22 23 24 26 28 28 27 26 25
5 5 6 6 4 2 3 6 8 9 10 13 14 13 13 13 12 10 7 8 11 14 15 16 17 16 14 12 11 11 10 9 8 6 4 3 1 1 3 4 4 4 4 6 6 5 5 5 3 1 1 2 4 5 6 11 14 12 8 6 6 7 9 10 10 11 12 13 15 19 21 21 22 22 22 22 23 23 23 23 23 25 28 30 29 27 24
6 5 6 5 6 7 6 7 8 8 8 11 13 14 12 9 7 6 5 6 10 13 12 13 15 15 14 13 13 13 12 11 9 8 6 6 6 6 7 7 6 7 7 8 7 7 6 5 5 3 1 1 3 4 6 10 12 10 7 6 6 7 8 9 11 12 13 14 16 18 19 19 20 20 21 22 22 22 23 23 23 23 26 28 28 27 24
6 6 7 6 7 7 6 5 6 6 7 9 9 9 9 8 6 5 6 6 9 10 11 12 14 13 12 12 12 11 11 9 8 8 7 6 7 6 6 5 6 8 9 9 8 7 6 6 6 4 1 1 3 4 6 9 10 9 7 7 7 6 7 9 11 12 13 13 15 16 17 18 18 19 19 20 21 22 22 22 22 22 23 24 24 25 24
5 6 6 6 6 7 5 5 5 6 6 7 7 7 7 7 6 6 6 5 7 10 12 14 14 12 11 10 10 9 8 7 7 7 6 6 6 6 5 5 5 7 8 8 8 7 7 7 5 2 1 1 3 4 5 8 8 7 7 7 7 5 6 9 11 11 12 13 14 15 16 17 17 17 17 18 19 20 21 20 19 18 18 19 20 20 20
5 5 6 5 5 5 3 2 4 5 4 5 8 8 8 7 7 7 6 6 9 13 15 15 14 13 12 12 10 8 6 5 5 6 7 7 7 7 7 6 6 7 9 9 8 7 7 6 3 1 1 2 4 5 6 7 7 7 7 7 6 4 5 8 10 12 13 13 14 15 16 15 14 14 15 16 17 18 19 17 15 14 14 16 17 15 14
6 4 3 4 4 4 4 2 2 3 2 4 7 9 10 10 10 10 10 11 12 15 16 16 16 16 14 13 11 8 5 5 5 6 8 8 7 7 8 8 8 9 10 10 9 8 7 6 4 3 2 3 4 5 6 7 6 6 7 7 6 4 5 6 8 10 12 13 14 15 15 13 13 13 13 14 15 16 17 16 13 12 12 11 11 11 11
7 6 6 6 5 4 3 1 2 4 3 3 5 8 10 11 12 13 14 15 14 14 16 17 17 16 14 11 9 7 7 7 7 7 8 8 7 7 7 8 9 10 10 10 9 8 7 5 5 4 4 4 5 6 7 6 5 5 5 5 5 5 6 6 6 8 10 11 12 14 13 12 13 12 11 12 13 14 14 14 12 11 10 10 9 10 10
7 7 5 6 6 5 5 5 4 5 5 4 4 6 8 10 14 15 16 16 15 14 15 16 15 14 12 10 8 9 9 9 8 8 8 7 7 7 7 8 8 9 10 10 8 7 7 6 5 5 6 6 6 7 7 5 4 3 2 4 5 5 5 5 4 5 8 9 10 12 12 12 13 12 11 11 12 13 13 11 9 8 9 10 10 10 10
6 6 6 7 7 4 5 8 8 7 6 6 6 6 7 9 14 17 16 15 14 14 14 15 14 13 11 9 8 10 11 10 9 9 8 7 6 6 7 8 8 8 8 7 6 6 7 6 5 5 7 6 6 6 6 4 2 1 1 2 4 5 5 3 3 4 6 7 8 10 10 10 12 13 12 12 13 14 14 12 9 7 8 9 10 10 10
8 8 9 10 8 3 3 5 6 6 5 5 5 6 8 10 13 15 14 13 13 14 15 16 15 12 9 8 8 9 10 10 11 10 9 8 7 7 8 9 8 8 7 6 4 5 6 5 4 5 5 5 6 5 4 3 2 1 1 1 3 6 7 5 4 4 4 5 7 8 8 8 10 12 13 13 13 14 14 14 12 11 10 10 10 10 11
10 10 9 9 8 5 1 2 4 3 1 1 2 6 10 11 12 12 11 11 12 14 16 16 14 10 8 8 9 9 9 10 11 12 11 10 9 9 10 11 10 9 8 6 5 4 4 4 3 3 4 7 7 5 2 3 4 3 0 2 4 6 7 6 6 5 4 5 6 6 7 8 9 11 13 13 13 13 13 13 14 14 13 11 11 12 13
7 8 9 10 10 10 7 3 6 3 1 2 5 9 10 10 9 9 10 11 13 14 15 15 13 11 10 11 11 10 9 10 11 12 12 12 11 11 12 12 10 9 9 7 5 4 4 4 4 5 4 5 6 5 2 3 5 4 2 2 3 5 6 8 9 8 6 6 5 5 6 8 9 10 11 11 11 11 12 13 14 14 12 10 11 12 13
3 2 4 6 6 9 11 8 2 1 3 7 10 10 9 8 7 7 8 11 13 14 15 16 15 14 13 13 13 12 10 10 11 12 12 11 11 12 13 12 9 9 11 10 7 5 5 5 6 6 4 4 6 4 2 4 7 6 3 3 3 4 5 7 10 10 8 6 6 6 6 7 9 10 11 10 9 10 12 14 14 12 11 11 12 13 14
4 4 2 2 3 6 8 9 7 3 1 6 9 11 10 9 8 7 7 9 12 14 16 17 17 15 14 13 12 11 9 10 12 13 13 12 12 13 13 10 7 7 10 10 8 7 7 8 8 7 5 5 5 5 2 3 8 9 6 4 4 4 4 6 9 11 10 7 7 8 8 7 8 9 9 9 9 10 12 13 13 12 12 13 14 13 14
5 5 5 5 6 6 3 3 4 5 5 3 3 5 6 8 9 9 8 7 9 12 16 18 17 14 13 12 11 9 8 9 11 13 14 13 12 12 11 8 5 7 9 9 8 8 9 9 10 8 6 5 5 5 3 4 8 11 8 6 5 4 3 5 8 10 10 8 7 7 7 7 8 8 8 7 8 10 10 11 11 12 13 13 14 14 15
6 7 7 6 7 6 3 0 2 4 5 4 4 3 0 3 5 7 10 9 8 10 15 18 18 15 12 10 8 7 8 9 10 12 13 13 12 11 9 6 6 7 9 9 9 9 8 9 9 8 6 5 5 4 3 4 9 12 10 8 7 6 4 5 5 7 8 8 7 7 7 7 7 7 6 7 8 9 9 10 11 12 12 13 13 14 15
6 7 9 9 9 7 5 4 2 1 1 2 4 5 4 3 3 4 6 8 8 8 11 15 16 15 13 10 8 6 7 8 10 12 13 13 13 13 12 9 9 9 9 9 10 9 9 9 9 7 6 5 4 3 3 6 10 12 12 11 9 7 5 5 4 5 6 7 7 7 7 6 5 5 6 6 7 7 8 9 9 10 11 12 12 14 15
8 8 9 12 12 11 9 9 8 5 4 6 7 8 8 8 6 5 7 8 8 8 8 10 12 13 13 12 10 9 8 8 8 9 10 11 12 14 14 13 12 12 10 9 9 9 10 10 9 9 7 5 4 3 3 7 11 13 14 13 11 9 7 6 5 5 6 6 6 7 7 7 5 4 4 5 6 7 8 9 9 10 11 12 13 14 15
7 8 9 10 12 13 13 13 12 10 8 7 8 9 9 9 8 8 10 11 11 9 8 8 10 12 13 12 11 10 10 9 7 7 8 8 8 9 10 12 14 12 10 9 9 10 10 10 10 8 7 6 6 4 4 6 10 13 14 14 13 11 8 7 6 6 6 6 6 6 6 6 6 4 4 4 5 6 8 9 10 11 12 13 13 14 14
8 7 7 8 11 14 14 13 12 11 10 8 8 10 11 11 10 9 8 8 9 10 10 10 10 12 14 13 11 10 10 11 9 7 7 8 6 5 6 10 13 12 11 11 11 11 10 10 9 8 8 8 7 6 6 6 9 12 15 16 14 12 10 9 8 7 7 8 7 7 5 4 4 4 5 5 5 6 7 8 10 11 12 13 13 14 14
9 7 6 7 9 11 12 11 10 10 11 12 13 14 14 13 12 12 10 7 6 7 7 7 7 9 13 15 14 12 11 11 10 7 8 9 8 6 5 7 10 11 11 10 10 10 9 9 8 9 9 8 8 8 7 5 6 9 12 15 15 14 12 10 10 9 9 9 8 7 6 5 4 4 4 4 5 6 7 8 9 10 11 11 12 12 12
9 9 9 8 7 8 10 11 11 12 14 15 16 16 15 14 12 13 12 10 8 7 7 6 5 5 8 12 15 15 14 12 10 8 8 9 10 9 6 6 7 9 9 9 8 7 7 8 10 10 10 9 9 8 6 5 5 7 10 12 15 15 13 11 11 11 10 9 9 8 7 6 6 6 6 5 5 5 5 6 7 8 9 9 9 9 9
9 10 11 10 8 7 8 10 13 15 17 17 17 16 15 13 13 13 12 10 10 9 9 8 6 5 5 8 12 15 15 13 11 9 9 9 11 11 9 7 7 7 9 10 8 6 7 10 11 10 9 10 9 7 6 5 5 7 9 11 13 15 15 14 13 12 11 10 10 9 8 7 7 6 6 6 7 8 8 7 7 7 7 7 7 7 7
9 10 11 11 9 8 7 8 10 13 15 16 16 16 14 13 14 15 14 12 11 11 10 9 9 7 6 6 8 12 14 14 13 10 9 10 12 11 9 7 6 6 8 10 9 7 9 12 11 9 9 9 8 7 7 6 5 7 10 11 12 13 14 14 14 13 12 11 10 9 8 7 8 8 8 8 9 10 10 10 9 9 8 8 7 6 6
7 7 7 7 7 6 6 5 5 5 7 9 13 16 15 13 12 13 13 12 12 12 11 10 9 8 7 7 7 8 11 13 13 12 11 11 12 12 10 8 7 7 7 9 9 9 10 11 12 11 10 9 8 8 8 8 7 8 9 10 11 11 12 13 12 12 12 11 10 9 8 7 8 8 9 10 12 11 11 10 10 10 9 9 8 8 7
Wind_Direction
324 0 87 55 70 96 95 102 94 72 70 74 74 46 304 170 150 172 173 156 143 152 153 135 128 119 114 114 106 100 99 96 92 88 82 75 70 70 68 64 64 64 59 54 52 49 48 51 54 53 51 54 62 75 86 93 95 100 113 121 122 127 142 153 158 159 165 177 182 175 162 157 167 179 184 196 218 222 211 205 205 202 198 200 207 205 202
6 6 24 33 43 72 69 57 50 51 75 98 96 80 76 89 95 132 140 136 112 110 129 123 111 104 105 104 99 100 102 100 96 90 87 82 74 74 75 72 67 64 61 57 54 51 47 46 48 49 48 51 57 66 75 78 78 84 98 106 106 106 116 132 140 147 158 167 171 161 132 128 154 176 178 184 220 225 214 210 207 199 200 205 206 205 205
15 1 8 17 37 83 70 42 23 15 20 80 98 94 87 76 59 89 116 114 84 70 96 98 92 85 82 81 88 94 95 100 102 97 94 92 87 82 80 76 70 64 59 55 52 49 48 49 50 50 51 55 60 66 72 71 71 76 83 85 85 86 89 95 102 110 119 135 147 140 131 167 195 199 187 184 205 215 204 209 210 205 207 214 215 215 214
359 346 9 25 72 95 59 28 9 360 351 87 109 97 112 112 114 116 114 113 112 104 94 84 71 71 80 83 90 96 96 103 106 103 100 97 91 84 75 68 65 60 54 50 48 48 50 54 55 54 57 61 62 65 71 74 76 78 77 76 76 78 78 74 72 73 73 85 103 101 126 192 216 227 205 201 219 227 198 190 205 204 207 215 219 226 232
329 327 358 34 89 94 42 359 342 332 300 253 58 35 42 99 127 138 139 119 109 118 109 97 80 75 85 87 90 99 109 111 103 101 102 100 96 90 82 73 68 64 57 50 50 52 50 51 56 61 65 66 66 68 72 75 77 76 74 72 72 73 74 73 71 70 69 67 65 61 56 64 130 212 205 209 228 240 220 192 234 214 208 215 220 225 233
205 314 358 40 76 137 179 310 333 319 293 120 89 64 23 19 74 116 115 102 92 88 99 103 96 84 78 71 63 71 92 106 102 96 93 93 96 94 89 84 77 73 69 61 59 61 56 50 53 63 69 71 72 74 75 74 74 72 70 68 66 65 65 64 63 64 66 65 65 65 62 62 69 74 84 118 276 296 279 275 284 273 259 257 251 245 245
146 342 37 54 125 182 198 323 343 335 328 80 90 76 36 18 45 98 103 105 100 88 87 95 96 87 71 56 44 33 31 50 87 96 90 89 93 93 91 89 85 85 82 72 65 66 64 57 55 59 64 66 69 70 69 69 68 66 64 63 60 58 57 55 53 53 55 57 57 55 53 54 57 55 52 50 45 38 29 313 284 277 270 272 272 266 261
106 80 69 110 199 296 351 345 351 354 358 28 55 55 26 0 358 103 111 111 103 101 104 104 98 95 85 66 44 28 30 36 57 80 87 92 92 87 87 89 89 91 89 83 77 73 69 63 59 57 59 62 65 64 60 60 60 58 55 53 51 49 47 44 41 41 41 42 43 41 40 40 40 38 35 34 33 33 30 23 11 356 331 303 291 284 276
106 108 85 105 127 2 0 353 356 29 6 330 16 75 7 344 354 117 125 121 117 118 120 117 115 112 93 68 33 2 32 56 68 75 79 90 97 99 99 96 92 88 84 83 80 78 74 68 62 59 59 62 65 62 55 52 52 52 49 45 43 43 39 34 30 28 26 25 24 23 23 23 23 21 20 18 16 13 8 7 9 6 358 346 330 313 295
94 109 104 94 88 312 293 285 284 191 187 233 180 109 354 345 16 112 132 131 131 133 134 136 138 121 86 79 30 310 6 66 89 90 85 89 98 102 100 96 92 84 75 70 71 73 73 68 62 62 64 62 62 60 55 52 52 54 53 48 44 43 40 36 31 27 23 19 16 13 11 10 8 5 5 5 4 2 359 354 351 347 343 337 332 328 319
63 91 108 121 150 226 239 272 289 277 218 222 114 76 339 353 45 95 123 127 136 143 148 156 153 116 91 119 204 235 207 158 112 104 96 84 80 79 82 85 82 74 69 68 68 67 66 63 60 61 62 61 59 56 54 55 55 56 56 51 47 46 43 40 38 35 31 28 24 20 15 10 6 1 357 354 351 351 351 349 345 340 336 329 321 316 317
71 85 87 94 136 253 287 294 296 295 276 219 113 116 252 145 114 115 121 126 138 148 156 167 130 106 130 155 181 190 174 145 109 101 90 77 70 64 66 72 69 63 63 65 61 55 52 50 49 51 56 61 62 56 51 51 49 46 46 45 47 48 45 41 39 36 34 31 30 27 22 16 11 6 359 352 347 344 343 341 338 335 334 331 324 314 309
62 88 99 71 250 290 316 307 296 301 325 62 131 203 243 155 138 136 127 130 137 140 154 154 90 87 126 139 147 156 148 120 102 99 93 86 78 70 66 68 68 68 69 67 60 49 39 33 35 42 51 58 59 52 45 43 38 34 37 42 46 47 42 37 34 30 26 24 22 20 16 11 9 7 3 358 353 349 345 341 337 333 330 328 325 318 311
35 83 93 75 195 327 331 314 303 332 51 132 190 272 320 124 133 118 105 117 119 108 114 118 108 105 112 120 127 131 126 118 110 105 99 90 81 74 70 71 75 78 76 72 64 47 31 27 34 42 47 47 45 41 42 42 40 39 41 39 36 32 27 25 23 19 15 12 9 8 6 4 3 4 5 4 1 360 357 351 346 340 334 331 329 325 318
41 64 51 66 173 317 329 324 329 13 62 164 173 32 38 58 84 89 84 95 110 109 104 101 106 110 106 107 113 112 109 109 103 99 96 87 78 72 68 66 70 77 80 78 66 48 37 39 45 46 40 33 32 39 44 43 39 36 33 26 21 17 14 13 10 8 7 5 3 3 2 2 2 2 2 1 359 0 0 358 356 352 346 340 336 333 327
55 89 52 72 195 312 341 12 76 32 0 74 86 78 64 50 51 75 76 65 84 110 114 108 106 108 105 106 110 105 102 102 95 94 96 91 83 75 68 64 61 65 77 81 65 48 43 40 33 28 31 38 47 50 45 33 24 20 16 11 8 6 6 4 1 1 1 0 0 1 0 360 0 359 358 356 354 355 356 356 357 355 350 346 341 336 332
70 105 116 130 143 26 26 54 83 74 53 53 69 84 83 63 43 61 82 75 66 86 103 102 98 101 103 102 100 98 97 95 89 89 92 93 90 79 69 63 55 55 75 91 66 47 50 46 38 42 56 63 65 58 44 28 18 13 6 1 1 2 3 2 1 0 358 356 357 357 355 353 353 353 353 351 349 349 349 350 351 350 347 345 342 339 335
77 77 95 110 95 72 63 64 69 71 67 59 68 77 77 70 62 62 74 80 72 71 85 91 89 92 98 96 94 97 96 87 87 90 90 93 94 84 69 61 52 47 68 97 81 72 76 77 77 78 74 72 71 64 50 34 23 14 7 3 4 4 3 3 1 358 356 354 351 348 346 347 348 348 349 347 345 344 343 342 342 342 340 340 341 339 335
93 89 114 116 100 96 93 83 75 73 71 66 71 79 81 78 73 68 66 70 67 61 69 82 85 84 86 89 88 92 96 93 92 93 92 92 91 82 68 57 43 37 56 85 85 82 84 82 79 76 73 71 69 57 39 26 17 9 5 3 1 360 360 359 357 353 350 348 347 346 348 351 351 349 348 347 344 341 338 336 334 332 331 333 337 337 333
71 108 130 115 95 91 90 89 91 89 88 87 84 91 99 92 78 72 72 74 74 69 71 81 83 71 62 69 82 88 94 96 95 94 91 86 82 75 62 47 39 47 70 88 89 88 87 79 70 68 66 60 50 34 22 13 4 359 357 356 355 356 358 357 353 348 346 345 345 346 347 346 342 340 340 341 340 336 332 329 326 324 323 324 328 330 327
73 92 115 110 86 62 58 90 103 100 102 104 97 93 97 98 95 89 79 75 85 101 99 88 80 70 56 58 75 82 78 77 81 84 84 81 77 65 49 37 41 66 81 83 88 92 88 75 62 58 53 44 32 20 10 1 355 354 355 355 355 357 357 355 350 346 344 344 342 339 338 335 333 331 331 332 331 327 324 322 319 317 316 317 319 320 319
139 184 159 136 117 112 152 149 135 130 125 114 106 104 104 104 105 104 87 74 75 87 94 91 83 77 70 72 76 75 63 60 63 64 65 65 56 45 44 50 69 84 75 71 86 92 82 66 62 57 43 30 20 10 2 356 354 355 356 354 352 352 350 348 348 346 343 341 338 335 334 332 330 329 328 327 326 324 322 321 316 312 311 312 313 312 308
190 197 174 146 125 140 168 159 153 155 141 119 112 115 116 115 118 114 103 90 80 75 84 92 94 95 94 88 84 77 60 54 53 50 51 52 52 58 68 77 83 80 69 66 76 82 69 57 56 50 36 25 15 7 2 357 352 352 357 355 351 348 345 342 343 343 340 339 338 336 335 333 330 326 324 323 323 322 322 320 316 312 312 312 312 311 306
110 127 146 132 116 122 140 143 147 150 129 116 112 111 112 115 118 115 111 115 116 105 86 92 100 105 105 99 93 85 65 53 51 53 57 64 71 78 83 79 72 67 59 52 48 47 51 54 51 46 40 30 18 11 10 4 352 346 351 348 339 336 336 335 335 337 336 337 337 336 334 332 328 324 321 320 319 319 320 319 316 315 314 313 313 314 310
103 107 116 105 101 108 113 110 112 118 119 117 112 115 119 116 114 114 115 121 124 119 111 104 107 109 109 105 101 97 83 67 64 68 70 72 73 74 73 69 63 54 43 34 29 30 42 54 51 47 48 34 17 11 13 10 358 341 334 330 323 324 330 331 330 331 332 333 335 335 333 329 326 323 321 316 313 314 317 319 320 318 318 318 319 320 319
101 106 96 83 84 96 99 91 86 99 114 115 113 120 124 121 117 116 120 129 133 129 125 123 119 117 116 113 111 110 103 93 89 87 82 78 71 62 57 53 48 40 25 21 27 37 43 46 48 50 54 30 10 0 358 359 352 336 325 321 319 325 334 332 327 326 329 333 335 332 327 324 323 324 323 317 310 308 310 314 317 317 316 317 319 321 322
73 93 95 81 63 48 83 119 143 150 128 119 119 126 130 127 123 119 120 129 137 138 135 131 128 127 128 129 133 136 134 131 126 113 101 91 74 57 42 24 4 344 352 4 15 21 16 12 27 49 52 25 3 353 348 348 345 338 326 322 327 335 334 330 326 327 332 335 331 325 321 321 321 322 321 319 315 310 307 306 306 307 309 312 316 319 320
73 81 97 107 123 131 119 131 142 144 135 131 133 138 139 131 123 121 126 132 133 135 140 141 139 140 143 151 158 160 162 168 174 179 192 201 207 294 301 311 311 298 313 341 347 334 329 339 344 347 38 7 341 339 346 346 345 342 333 329 338 338 330 330 335 336 332 326 322 320 322 323 322 318 317 317 315 312 310 306 302 301 304 309 315 320 321
111 105 103 122 147 149 138 129 129 135 147 148 145 145 147 138 122 134 174 164 138 139 151 156 154 157 164 171 175 174 173 179 185 191 205 216 225 251 271 278 279 279 288 304 310 302 304 324 331 321 312 309 307 315 335 345 351 356 351 339 341 339 336 343 346 339 330 326 325 327 329 329 325 321 320 319 318 315 313 310 307 306 306 309 315 321 324
147 136 130 136 141 139 141 149 149 157 166 161 151 151 155 149 140 166 200 185 153 154 165 162 159 167 178 185 188 186 180 179 180 182 188 197 206 227 253 260 265 278 283 284 288 288 290 311 329 330 301 288 291 290 311 335 354 7 360 341 338 341 345 350 348 340 336 337 338 338 338 337 333 329 325 324 324 323 319 314 312 311 309 312 317 320 324
152 138 130 128 129 129 139 167 179 179 173 161 157 164 165 153 146 163 184 175 155 158 163 161 163 174 183 185 185 182 178 179 185 191 199 203 208 224 250 264 273 284 284 277 278 282 287 303 317 318 200 267 279 272 295 323 345 358 353 342 342 341 338 344 349 350 350 352 352 349 344 342 341 338 335 336 336 333 327 323 321 320 321 322 323 323 326
115 98 95 93 88 82 82 143 183 190 187 166 161 168 175 172 166 168 170 159 150 154 160 165 170 175 177 178 180 178 181 196 208 213 217 217 219 233 253 269 279 280 279 277 276 276 281 287 281 216 215 279 272 269 290 311 327 338 340 340 344 336 326 338 352 358 358 1 3 1 356 354 354 353 353 355 354 350 347 346 343 339 336 331 328 329 334
112 93 103 116 95 65 47 45 124 151 177 180 176 181 185 179 170 166 165 157 149 152 160 169 176 178 179 182 186 187 189 198 205 215 222 223 225 236 250 267 278 276 275 276 272 265 267 264 238 222 265 287 273 272 283 295 309 321 326 331 335 326 316 328 346 355 1 8 11 11 11 13 13 10 7 6 6 7 9 11 8 1 354 347 346 351 353
165 168 181 177 151 126 134 154 119 114 117 133 162 175 177 171 166 164 161 156 154 160 167 171 175 180 183 186 190 191 190 192 200 212 220 222 226 235 248 264 273 274 275 277 268 252 246 239 228 238 277 297 284 272 271 280 296 307 313 323 327 317 313 322 340 356 7 14 16 17 23 28 26 21 15 10 11 17 21 20 18 14 11 7 6 5 1
180 170 171 164 146 145 170 174 152 132 123 125 162 188 185 174 168 164 161 161 164 170 175 174 174 179 186 193 199 201 202 208 215 220 223 229 235 240 245 255 268 276 280 277 261 239 227 223 229 255 286 296 282 265 260 270 290 303 316 328 328 323 315 312 327 359 12 15 17 21 29 36 36 32 28 26 29 33 33 30 27 22 16 12 8 8 12
128 123 105 104 107 131 170 158 144 140 141 147 172 196 201 188 174 167 166 172 176 177 178 176 175 180 192 207 217 218 219 223 225 225 230 239 242 241 244 252 266 280 282 268 239 217 212 215 234 267 279 272 253 244 247 253 265 311 345 331 342 359 1 340 329 352 4 9 16 23 31 41 46 44 41 39 42 45 45 44 42 35 27 26 25 25 32
77 93 101 109 113 125 182 158 137 134 143 148 158 172 182 184 177 170 169 174 178 180 181 177 175 183 203 221 230 232 232 231 232 234 240 245 244 248 255 259 266 274 271 252 213 196 205 218 244 262 251 217 201 212 230 220 207 208 19 20 26 33 37 34 15 0 0 7 14 19 26 37 47 48 44 41 45 51 55 57 57 53 48 47 49 51 57
62 63 68 83 87 64 20 178 156 129 100 141 164 162 166 169 168 168 175 182 181 181 181 180 181 193 208 215 222 230 234 236 237 240 243 245 246 252 259 261 261 260 251 230 199 195 216 233 234 216 188 178 187 206 218 192 199 218 178 81 63 52 51 45 31 22 21 18 12 14 24 36 44 46 42 40 45 55 65 70 67 59 55 57 64 69 74
68 58 50 45 33 9 343 242 190 182 204 176 152 146 151 158 159 161 176 188 188 183 181 183 191 203 210 214 222 230 232 234 237 241 245 246 247 252 260 263 261 251 235 219 205 206 230 241 222 198 181 191 214 226 213 187 205 216 192 117 84 65 59 47 37 35 36 28 21 24 36 44 48 47 41 37 44 60 78 84 74 60 58 70 79 81 85
124 115 78 59 18 341 334 332 328 158 163 167 163 157 162 176 180 177 180 184 185 188 190 193 199 206 212 220 230 238 238 235 233 238 245 248 247 252 260 266 258 237 225 219 214 220 240 246 231 218 225 245 241 229 194 195 213 216 194 148 120 89 67 50 44 46 46 43 43 47 50 53 54 48 40 37 47 67 85 90 82 72 76 87 90 89 92
189 201 169 150 236 280 315 336 341 349 142 176 186 189 190 194 201 206 198 185 186 195 201 201 204 212 223 230 237 243 244 237 231 233 239 241 238 240 249 257 247 220 214 215 218 230 243 244 234 235 256 264 236 219 211 214 216 212 195 161 144 123 87 63 57 57 59 61 62 60 61 66 64 51 41 43 58 76 89 94 94 94 97 98 97 97 99
195 203 192 191 217 238 270 346 4 19 35 62 156 187 199 208 216 225 229 217 206 207 208 208 212 222 228 226 226 229 231 229 227 228 231 233 230 231 237 243 223 195 200 215 227 234 238 235 231 241 263 261 230 234 267 243 214 207 195 174 165 153 110 83 73 67 66 69 73 72 73 79 74 58 46 52 70 85 96 101 102 104 105 105 106 107 107
203 205 205 204 210 211 200 164 18 25 34 40 45 45 1 226 224 233 236 229 215 205 206 210 218 224 220 209 207 217 226 232 234 232 230 233 235 236 239 240 220 203 209 224 234 234 228 221 221 236 260 255 235 248 270 226 205 202 195 182 177 168 136 108 94 81 73 73 75 75 76 81 83 75 64 65 76 88 99 106 109 109 109 111 114 115 115
246 232 235 237 232 221 209 212 228 254 325 333 344 349 335 308 290 275 258 245 232 220 216 217 219 218 212 207 207 214 223 234 242 241 236 234 236 238 237 232 226 224 230 236 236 229 216 207 213 238 263 256 233 242 242 207 199 199 195 188 182 173 155 138 127 110 92 84 81 78 74 77 87 91 83 79 85 96 103 108 113 116 116 116 118 120 122
286 281 272 259 248 240 232 224 219 220 248 273 284 295 300 292 281 281 289 282 264 247 239 235 226 216 211 213 218 224 231 239 244 241 234 232 239 245 240 228 221 226 237 241 232 216 203 204 221 247 260 239 211 213 214 198 194 194 193 189 187 181 167 153 146 137 119 102 92 88 83 79 83 95 95 89 97 110 119 123 126 128 127 125 125 125 126
285 308 303 276 255 247 245 242 238 236 244 257 263 267 272 275 274 277 284 279 264 254 259 260 238 218 211 213 220 229 236 239 238 238 237 239 251 259 247 225 215 220 235 242 229 212 208 220 236 244 234 209 188 171 163 174 182 187 188 188 189 187 178 167 161 157 149 138 126 113 96 78 70 81 105 112 112 123 132 136 137 136 133 132 132 131 130
275 299 305 283 265 257 254 251 245 238 235 239 247 251 256 263 268 266 262 259 256 256 264 267 251 231 222 220 222 227 231 229 229 241 254 253 254 259 242 222 217 223 240 247 235 222 225 237 237 219 199 190 181 167 154 156 170 182 189 191 191 189 184 177 171 164 160 159 155 145 132 107 78 80 97 107 115 132 142 144 141 140 139 138 138 137 135
276 276 278 274 270 270 267 255 238 229 232 235 239 246 255 263 261 249 238 238 252 259 260 265 265 251 237 228 223 225 230 230 229 239 252 249 240 235 230 223 224 233 244 244 234 230 236 235 213 191 185 184 180 176 173 167 168 180 190 195 195 193 188 184 180 175 171 171 172 169 164 160 151 137 126 117 116 128 140 145 147 148 148 147 145 143 140
281 277 274 264 259 270 273 257 235 232 240 244 243 247 256 259 254 248 245 246 252 260 262 263 267 263 245 231 224 225 230 233 234 240 245 235 224 220 217 214 222 233 232 222 218 226 224 200 182 179 184 184 179 181 193 205 196 189 191 194 196 194 191 187 185 185 184 184 186 187 187 185 180 174 170 167 163 161 161 160 160 160 160 159 158 156 152
287 288 286 278 269 269 267 249 236 238 245 246 246 251 254 248 241 242 246 244 245 253 256 248 239 242 245 233 226 226 230 234 237 243 240 223 211 209 211 211 215 219 213 204 201 202 189 177 173 176 184 186 187 198 223 234 215 193 188 188 191 192 192 190 190 192 194 195 196 196 197 198 197 196 193 191 190 190 191 192 189 184 180 178 177 173 169
300 294 289 287 288 285 276 263 254 255 257 256 254 256 255 248 242 245 246 242 237 239 239 234 234 238 238 227 222 225 229 231 232 233 230 219 209 206 209 214 214 211 206 204 201 194 185 183 182 183 186 191 200 217 230 228 206 185 181 182 183 185 187 189 191 193 196 198 200 203 206 208 209 210 210 207 203 198 195 196 198 200 201 201 201 199 193
318 311 297 288 286 286 288 291 288 289 296 292 274 260 250 241 238 242 244 240 236 235 237 240 244 243 237 230 224 222 226 229 228 221 218 217 214 212 213 217 216 214 216 216 211 200 191 191 194 196 198 203 213 224 225 218 206 192 187 187 187 187 190 193 196 199 201 202 204 209 216 220 221 218 213 210 210 209 205 201 202 204 205 207 213 217 215